Location: Cisewo
(53.3833°N, 14.9000°E)
Time: 11:38:44
(UTC+00:00)

Timation 2 Rocket - Pass Details

Date: 18 April 2021
Orbit: 907 x 1074 km, 70.0° (Epoch: 14 May)

Event Time Altitude Azimuth Distance (km) Brightness Sun altitude
Exits shadow 20:10:13 11° 181° (S) 2,728 5.9 -16.1°
Maximum altitude 20:16:10 45° 112° (ESE) 1,323 4.3 -16.7°
Drops below altitude 10° 20:22:07 10° 42° (NE) 2,710 6.4 -17.3°
Sets 20:24:42 0° 36° (NE) 3,637 7.2 -17.6°
